Weather History for Scottsbluff, NE

Change the Weather History Date:

Monday, May 13, 2013

  Actual Average Record
Temperature  
Mean Temperature 71 °F 56 °F  
Max Temperature 93 °F 71 °F 96 °F (1941)
Min Temperature 48 °F 42 °F 28 °F (1953)
Degree Days  
Heating Degree Days 0 9  
Month to date heating degree days 165 147  
Since 1 July heating degree days 6215 6440  
Cooling Degree Days 6 1  
Month to date cooling degree days 6 2  
Year to date cooling degree days 6 4  
Growing Degree Days 22 (Base 50)    
Moisture  
Dew Point 38 °F    
Average Humidity 42    
Maximum Humidity 71    
Minimum Humidity 12    
Precipitation  
Precipitation 0.00 in 0.07 in 1.42 in (1961)
Month to date precipitation 0.19 0.89  
Year to date precipitation 3.37 4.73  
Snow  
Snow 0.00 in 0.00 in 1.00 in (1961)
Month to date snowfall 1.0 0.4  
Since 1 July snowfall 42.3 42.0  
Snow Depth 0.00 in    
Sea Level Pressure  
Sea Level Pressure 29.89 in    
Wind  
Wind Speed 7 mph (West)    
Max Wind Speed 17 mph    
Max Gust Speed 24 mph    
Visibility 10 miles    
Events      
T = Trace of Precipitation, MM = Missing Value Source: NWS Daily Summary

Daily Weather History Graph

Daily Weather History Graph

Search for Another Location

Airport:

Trip Planner

Search our weather history database for the weather conditions in past years. The results will help you decide how hot, cold, wet, or windy it might be!

Date:

Astronomy

May. 13, 2013 Rise Set
Actual Time 5:36 AM MDT 8:06 PM MDT
Civil Twilight 5:04 AM MDT 8:37 PM MDT
Nautical Twilight 4:24 AM MDT 9:17 PM MDT
Astronomical Twilight 3:40 AM MDT 10:01 PM MDT
Moon 8:23 AM MDT (5/13) 11:16 PM MDT (5/13)
Length of Visible Light 15h 33m
Length of Day
14h 30m
Waxing Crescent, 12% of the Moon is Illuminated
May 13
Waxing Crescent
May 17
First Quarter
May 24
Full
May 31
Last Quarter
Jun 8
New

Hourly Weather History & Observations

Time (MDT) Temp. Dew Point Humidity Pressure Visibility Wind Dir Wind Speed Gust Speed Precip Events Conditions
12:53 AM 57.0 °F 39.0 °F 51% 29.94 in 10.0 mi East 8.1 mph - N/A   Clear
1:53 AM 55.0 °F 39.0 °F 55% 29.92 in 10.0 mi East 6.9 mph - N/A   Clear
2:53 AM 53.1 °F 39.0 °F 59% 29.91 in 10.0 mi Calm Calm - N/A   Clear
3:53 AM 50.0 °F 37.9 °F 63% 29.92 in 10.0 mi NE 3.5 mph - N/A   Clear
4:53 AM 48.9 °F 39.0 °F 69% 29.94 in 10.0 mi NW 6.9 mph - N/A   Clear
5:53 AM 52.0 °F 39.9 °F 63% 29.94 in 10.0 mi NW 9.2 mph - N/A   Clear
6:53 AM 54.0 °F - N/A% 29.97 in 10.0 mi NW 6.9 mph - N/A   Clear
7:53 AM 61.0 °F 44.1 °F 54% 29.98 in 10.0 mi NW 8.1 mph - N/A   Clear
8:53 AM 69.1 °F 41.0 °F 36% 29.98 in 10.0 mi WNW 11.5 mph - N/A   Clear
9:53 AM 75.0 °F 42.1 °F 31% 29.96 in 10.0 mi WNW 9.2 mph - N/A   Clear
10:53 AM 81.0 °F 42.1 °F 25% 29.95 in 10.0 mi WNW 9.2 mph - N/A   Clear
11:53 AM 88.0 °F 37.9 °F 17% 29.93 in 10.0 mi West 12.7 mph 17.3 mph N/A   Clear
12:53 PM 90.0 °F 35.1 °F 14% 29.91 in 10.0 mi West 6.9 mph - N/A   Clear
2:53 PM 91.9 °F 32.0 °F 12% 29.88 in 10.0 mi WSW 12.7 mph 19.6 mph N/A   Partly Cloudy
3:53 PM 91.9 °F 32.0 °F 12% 29.86 in 10.0 mi WNW 12.7 mph 20.7 mph N/A   Clear
4:53 PM 90.0 °F 30.9 °F 12% 29.85 in 10.0 mi Variable 3.5 mph - N/A   Clear
5:53 PM 89.6 °F 33.8 °F 14% 29.96 in 10.0 mi SW 10.4 mph 16.1 mph N/A   Clear
6:53 PM 88.0 °F 34.0 °F 15% 29.82 in 10.0 mi SW 4.6 mph - N/A   Clear
7:53 PM 84.9 °F 35.1 °F 17% 29.81 in 10.0 mi South 3.5 mph - N/A   Clear
8:53 PM 73.9 °F 37.0 °F 26% 29.81 in 10.0 mi SE 5.8 mph - N/A   Clear
9:53 PM 71.1 °F 39.0 °F 31% 29.81 in 10.0 mi SSE 5.8 mph - N/A   Clear
10:53 PM 69.1 °F 39.0 °F 33% 29.79 in 10.0 mi Calm Calm - N/A   Clear
11:53 PM 70.0 °F 39.0 °F 32% 29.75 in 10.0 mi SSE 3.5 mph - N/A   Clear